Regional Weather Roundup
Issued by NWS

Home | Current Version | Previous Version | Graphics & Text | Print | Product List | Glossary On
Versions: 1 2 3 4 5 6 7 8 9 10 11 12 13 14 15 16 17 18 19 20 21 22 23 24 25 26 27
000
ASUS45 KBOI 230510
RWRID

IDAHO REGIONAL WEATHER ROUNDUP
NATIONAL WEATHER SERVICE BOISE ID
1100 PM MDT WED MAR 22 2017

NOTE: "FAIR" INDICATES FEW OR NO CLOUDS BELOW 12000 FEET
WITH NO SIGNIFICANT WEATHER AND/OR OBSTRUCTIONS TO VISIBILITY

IDZ012-014-230600-
SOUTHWEST IDAHO


CITY           SKY/WX    TMP DP  RH WIND       PRES   REMARKS
BOISE          CLOUDY    49  38  65 NW9       29.90R
CALDWELL       CLOUDY    49  39  68 W13       29.92R
MOUNTAIN HOME  CLOUDY    49  40  70 NW20G29   29.87R
$$

IDZ016-017-230600-
SOUTHCENTRAL IDAHO


CITY           SKY/WX    TMP DP  RH WIND       PRES   REMARKS
BURLEY         CLOUDY    44  34  67 S12       29.84F
JEROME         CLOUDY    44  37  76 S6        29.87S
TWIN FALLS     CLOUDY    42  36  79 S13       29.86S
$$

IDZ019>023-230600-
SOUTHEAST IDAHO


CITY           SKY/WX    TMP DP  RH WIND       PRES   REMARKS
IDAHO FALLS    CLOUDY    42  39  89 W5        29.84R
POCATELLO      CLOUDY    44  39  82 W22       29.87R
REXBURG        CLOUDY    42  37  82 NW3       29.83S
$$

IDZ006-010-011-018-031-032-230600-
CENTRAL IDAHO MOUNTAINS


CITY           SKY/WX    TMP DP  RH WIND       PRES   REMARKS
MCCALL         CLOUDY    37  31  78 W7        29.90R WCI  32
HAILEY         MOCLDY    37  30  75 W5        29.88R WCI  34
STANLEY          N/A     32  28  85 CALM      29.91R
SALMON         MOCLDY    43  32  65 N6        29.83R
CHALLIS        CLOUDY    43  26  51 W5        29.85R
$$

IDZ002-004-006-007-026-230600-
NORTHERN IDAHO


CITY           SKY/WX    TMP DP  RH WIND       PRES   REMARKS
LEWISTON       MOCLDY    48  42  80 CALM      29.97R
LOWELL           N/A     43  41  93 CALM      30.01R
COEUR D`ALENE  CLOUDY    45  40  82 S6        29.93R
MULLAN PASS    LGT SNOW  30  30 100 CALM      29.87S VSB 3/4
$$




USA.gov is the U.S. government's official web portal to all federal, state and local government web resources and services.